DW7306 Palmira PA current weather conditions

sailwx.info

Wind from 002 at 5 knots

Air temperature 20.0° C
Dewpoint 17.6° C

Last reported at 2019-Nov-18 00:59 UTC.
Time now 2019-Nov-18 01:21 UTC

Location: N 08°46' W 082°28'.
View on Google Maps.

See reports from other nearby stations

  
Tides and Currents Weather Stations Pressure Air Temp Water Temp Dewpoint Dewpoint Depression Visibility Wind Speed Wind Dir Waves Ship Positions
date/time (UTC)wind fromknots sea level pressurealtimeterstation pressurevisibilityair tempwater tempwave heightnotes
2019-Nov-18 00:59 002 5 20.0
2019-Nov-18 00:49 342 4 19.4
2019-Nov-18 00:39 013 3 19.4
2019-Nov-18 00:29 009 2 19.4
2019-Nov-18 00:19 205 1 19.4
2019-Nov-18 00:09 079 1 18.9
2019-Nov-17 23:59 104 18.3
2019-Nov-17 23:49 191 18.3
2019-Nov-17 23:39 191 18.3
2019-Nov-17 23:29 191 18.3
2019-Nov-17 23:19 191 18.3
2019-Nov-17 23:10 178 18.9
2019-Nov-17 22:59 088 1 19.4
2019-Nov-17 22:49 072 2 20.0
2019-Nov-17 22:39 059 3 20.0
2019-Nov-17 22:29 082 19.4
2019-Nov-17 22:19 032 19.4
2019-Nov-17 22:10 031 3 20.0
2019-Nov-17 21:59 044 3 20.0
2019-Nov-17 21:49 070 5 20.0
2019-Nov-17 21:39 011 1 20.6
2019-Nov-17 21:29 047 3 20.6
2019-Nov-17 21:19 071 4 20.6
2019-Nov-17 21:10 044 0 20.6
2019-Nov-17 20:59 072 4 20.6
2019-Nov-17 20:49 035 6 20.6
2019-Nov-17 20:39 005 5 21.1
2019-Nov-17 20:29 043 2 21.7
2019-Nov-17 20:19 117 4 22.2
2019-Nov-17 20:10 110 22.8
2019-Nov-17 20:00 087 7 22.2
2019-Nov-17 19:49 123 4 22.2
2019-Nov-17 19:39 016 0 22.2
2019-Nov-17 19:29 037 22.2
2019-Nov-17 19:19 162 22.8
2019-Nov-17 19:10 127 21.7
2019-Nov-17 18:59 075 22.8
2019-Nov-17 18:49 055 22.8
2019-Nov-17 18:39 047 21.1
2019-Nov-17 18:29 120 21.1
2019-Nov-17 18:20 191 21.7
2019-Nov-17 18:10 166 1 22.2
2019-Nov-17 17:59 147 2 23.3
2019-Nov-17 17:49 201 24.4
2019-Nov-17 17:39 140 21.7
2019-Nov-17 17:29 160 21.7
2019-Nov-17 17:19 115 1 21.1
2019-Nov-17 17:10 067 1 21.7
2019-Nov-17 16:59 136 21.7
2019-Nov-17 16:30 081 21.7
2019-Nov-17 16:19 131 21.7
2019-Nov-17 16:09 193 22.8
2019-Nov-17 15:59 174 21.7
2019-Nov-17 15:50 187 21.7
2019-Nov-17 15:39 112 21.7
2019-Nov-17 15:29 127 0 21.7
2019-Nov-17 15:19 196 21.7
2019-Nov-17 15:10 047 3 21.7
2019-Nov-17 14:59 247 21.1
2019-Nov-17 14:49 150 20.6
2019-Nov-17 14:39 169 19.4
2019-Nov-17 14:29 116 19.4
2019-Nov-17 14:19 116 19.4
2019-Nov-17 14:10 109 20.6
2019-Nov-17 13:59 110 20.0
2019-Nov-17 13:50 311 20.0
2019-Nov-17 13:39 081 20.0
2019-Nov-17 13:29 317 19.4
2019-Nov-17 13:19 317 18.9
2019-Nov-17 13:09 242 18.9
2019-Nov-17 12:59 229 18.3
2019-Nov-17 12:50 194 18.3
2019-Nov-17 12:40 297 18.3
2019-Nov-17 12:30 262 17.8
2019-Nov-17 12:20 283 17.8
2019-Nov-17 12:10 301 17.8
2019-Nov-17 12:00 285 17.8
2019-Nov-17 11:50 285 17.8
2019-Nov-17 11:39 285 17.8
2019-Nov-17 11:30 074 17.8
2019-Nov-17 11:19 096 0 17.8
2019-Nov-17 11:10 080 17.8
2019-Nov-17 11:00 078 1 18.3
2019-Nov-17 10:50 042 17.2
2019-Nov-17 10:40 042 17.8
2019-Nov-17 10:29 320 17.2
2019-Nov-17 10:20 019 17.8
2019-Nov-17 10:10 019 17.8
2019-Nov-17 10:00 019 17.8
2019-Nov-17 09:50 307 17.2
2019-Nov-17 09:40 306 17.2
2019-Nov-17 09:29 306 17.2
2019-Nov-17 09:19 306 17.8
2019-Nov-17 09:10 327 17.8
2019-Nov-17 09:00 313 17.8
2019-Nov-17 08:50 313 17.8
2019-Nov-17 08:39 313 17.8
2019-Nov-17 08:29 313 17.2
2019-Nov-17 08:19 303 1 17.2
2019-Nov-17 08:10 339 17.8
2019-Nov-17 08:00 340 17.2
2019-Nov-17 07:49 265 17.2
2019-Nov-17 07:40 329 17.2
2019-Nov-17 07:30 329 17.2
2019-Nov-17 07:19 329 17.2
2019-Nov-17 07:10 294 17.2
2019-Nov-17 07:00 300 17.2
2019-Nov-17 06:50 278 17.2
2019-Nov-17 06:40 278 17.2
2019-Nov-17 06:30 333 17.2
2019-Nov-17 06:20 333 17.2
2019-Nov-17 06:10 258 17.2
2019-Nov-17 06:00 309 17.2
2019-Nov-17 05:50 309 17.2
2019-Nov-17 05:40 084 17.8
2019-Nov-17 05:30 077 0 18.9
2019-Nov-17 05:20 275 17.8
2019-Nov-17 05:10 326 17.8
2019-Nov-17 05:00 326 17.8
2019-Nov-17 04:50 313 17.2
2019-Nov-17 04:40 338 17.2
2019-Nov-17 04:30 346 17.2
2019-Nov-17 04:20 271 17.8
2019-Nov-17 04:10 284 17.8
2019-Nov-17 04:00 301 17.2
2019-Nov-17 03:50 301 18.3
2019-Nov-17 03:40 301 17.8
2019-Nov-17 03:30 242 0 18.3
2019-Nov-17 03:20 273 18.9
2019-Nov-17 03:10 006 1 19.4
2019-Nov-17 03:00 013 4 18.9
2019-Nov-17 02:50 001 0 18.9
2019-Nov-17 02:40 006 1 18.9
2019-Nov-17 02:30 18.9
2019-Nov-17 02:20 350 0 18.9
2019-Nov-17 02:10 008 18.9
2019-Nov-17 02:00 008 18.9
2019-Nov-17 01:51 252 18.3
2019-Nov-17 01:41 252 18.9
2019-Nov-17 01:30 259 0 18.9
2019-Nov-17 01:20 229 18.3
2019-Nov-17 01:10 227 18.9
2019-Nov-17 01:00 110 19.4
2019-Nov-17 00:50 082 18.9
2019-Nov-17 00:40 069 19.4
2019-Nov-17 00:30 074 1 19.4
2019-Nov-17 00:20 001 19.4
2019-Nov-17 00:10 042 20.0
2019-Nov-17 00:00 077 0 19.4
2019-Nov-16 23:50 074 19.4
2019-Nov-16 23:40 032 19.4
2019-Nov-16 23:30 029 2 20.0
2019-Nov-16 23:20 032 19.4
2019-Nov-16 23:10 052 19.4
2019-Nov-16 23:00 059 0 19.4
2019-Nov-16 22:50 061 4 20.0
2019-Nov-16 22:40 075 0 20.6
2019-Nov-16 22:30 033 20.6
2019-Nov-16 22:20 115 5 20.6
2019-Nov-16 22:10 089 20.6
2019-Nov-16 22:00 098 2 20.6
2019-Nov-16 21:50 120 21.1
2019-Nov-16 21:40 078 1 20.6
2019-Nov-16 21:30 077 4 20.6
2019-Nov-16 21:20 113 0 21.7
2019-Nov-16 21:10 080 3 21.1
2019-Nov-16 21:00 106 21.1
2019-Nov-16 20:50 064 4 21.7
2019-Nov-16 20:40 220 21.7
2019-Nov-16 20:30 082 21.7
2019-Nov-16 20:20 085 22.2
2019-Nov-16 20:10 142 21.7
2019-Nov-16 20:00 133 21.7
2019-Nov-16 19:50 068 1 22.2
2019-Nov-16 19:40 105 1 21.1
2019-Nov-16 19:30 049 22.2
2019-Nov-16 19:20 169 22.2
2019-Nov-16 19:10 087 2 23.3
2019-Nov-16 19:00 158 0 23.3
2019-Nov-16 18:50 232 0 23.9
2019-Nov-16 18:40 070 23.9
2019-Nov-16 18:30 058 4 23.3
2019-Nov-16 18:20 351 2 24.4
2019-Nov-16 18:10 089 1 23.3
2019-Nov-16 18:00 065 4 24.4
2019-Nov-16 17:50 032 3 25.0
2019-Nov-16 17:40 048 2 23.9
2019-Nov-16 17:30 033 4 22.8
2019-Nov-16 17:20 125 3 23.3
2019-Nov-16 17:10 043 1 23.3
2019-Nov-16 17:00 079 8 22.2
2019-Nov-16 16:50 320 3 22.8
2019-Nov-16 16:40 049 5 22.8
2019-Nov-16 16:30 094 4 21.7
2019-Nov-16 16:20 093 5 21.7
2019-Nov-16 16:10 068 1 22.2
2019-Nov-16 16:00 100 7 21.1
2019-Nov-16 15:50 066 5 20.6
2019-Nov-16 15:40 094 0 21.1
2019-Nov-16 15:30 112 4 21.1
2019-Nov-16 15:20 019 21.1
2019-Nov-16 15:10 048 5 20.6
2019-Nov-16 15:00 042 6 21.1
2019-Nov-16 14:50 040 4 21.7
2019-Nov-16 14:40 028 2 21.1
2019-Nov-16 14:30 133 6 20.6
2019-Nov-16 14:20 009 21.7
2019-Nov-16 14:10 350 5 21.1
2019-Nov-16 12:50 123 18.9
2019-Nov-16 12:40 177 18.9
2019-Nov-16 12:30 058 18.9
2019-Nov-16 12:20 058 20.6
2019-Nov-16 12:10 208 20.0
2019-Nov-16 12:00 208 18.3
2019-Nov-16 11:50 158 18.9
2019-Nov-16 11:40 057 1 19.4
2019-Nov-16 11:30 005 1 18.9
2019-Nov-16 11:20 088 18.9
2019-Nov-16 11:10 016 18.9
2019-Nov-16 11:00 061 2 18.3
2019-Nov-16 10:50 316 17.8
2019-Nov-16 10:40 313 17.8
2019-Nov-16 10:30 081 4 18.9
2019-Nov-16 10:20 301 17.2
2019-Nov-16 10:10 301 17.2
2019-Nov-16 10:00 301 17.8
2019-Nov-16 09:50 301 17.8
2019-Nov-16 09:40 333 17.8
2019-Nov-16 09:30 333 17.2
2019-Nov-16 09:20 333 17.2
2019-Nov-16 09:10 289 1 17.8
2019-Nov-16 09:00 306 17.8
2019-Nov-16 08:50 306 17.8
2019-Nov-16 08:40 304 17.8
2019-Nov-16 08:30 304 17.8
2019-Nov-16 08:20 211 17.8
2019-Nov-16 08:10 171 18.3
2019-Nov-16 08:00 097 18.3
2019-Nov-16 07:50 022 2 19.4
2019-Nov-16 07:40 012 18.9
2019-Nov-16 07:30 326 17.2
2019-Nov-16 07:20 326 17.8
2019-Nov-16 07:10 274 17.2
2019-Nov-16 07:00 274 17.8
2019-Nov-16 06:50 274 17.8
2019-Nov-16 06:40 274 17.8
2019-Nov-16 06:30 274 17.2
2019-Nov-16 06:20 225 17.2
2019-Nov-16 06:10 225 17.8
2019-Nov-16 06:00 209 18.3
2019-Nov-16 05:50 047 18.9
2019-Nov-16 05:40 027 1 18.9
2019-Nov-16 05:30 077 0 18.9
2019-Nov-16 05:20 044 0 18.9
2019-Nov-16 05:10 286 18.3
2019-Nov-16 05:00 246 17.8
2019-Nov-16 04:50 17.8
2019-Nov-16 04:40 17.8
2019-Nov-16 04:30 17.8
2019-Nov-16 04:20 18.3
2019-Nov-16 04:10 18.3
2019-Nov-16 04:00 254 18.3
2019-Nov-16 03:50 019 18.9
2019-Nov-16 03:40 335 18.3
2019-Nov-16 03:30 306 18.3
2019-Nov-16 03:20 298 18.3
2019-Nov-16 03:10 288 17.8
2019-Nov-16 03:00 289 17.8
2019-Nov-16 02:50 205 18.3
2019-Nov-16 02:40 321 18.3
2019-Nov-16 02:30 321 17.8
2019-Nov-16 02:20 320 17.8
2019-Nov-16 02:10 321 17.8
2019-Nov-16 02:00 321 17.8
2019-Nov-16 01:50 321 17.8
2019-Nov-16 01:40 321 17.8
2019-Nov-16 01:30 267 17.8
2019-Nov-16 01:20 267 17.8
2019-Nov-16 01:10 267 17.8
2019-Nov-16 01:00 267 18.3